Weather History for Fort Rucker / Ozark, AL

Change the Weather History Date:

Thursday, November 1, 2012

  Actual Average (KDHN) Record (KDHN)
Temperature  
Mean Temperature 58 °F 63 °F  
Max Temperature 73 °F 75 °F 88 °F (1950)
Min Temperature 44 °F 50 °F 33 °F (1954)
Degree Days  
Heating Degree Days 6 4  
Month to date heating degree days 4  
Since 1 July heating degree days 63  
Cooling Degree Days 0 2  
Month to date cooling degree days 2  
Year to date cooling degree days 2365  
Growing Degree Days 8 (Base 50)    
Moisture  
Dew Point 42 °F    
Average Humidity 66    
Maximum Humidity 93    
Minimum Humidity 25    
Precipitation  
Precipitation 0.00 in 0.10 in 1.75 in (1947)
Month to date precipitation 0.10  
Year to date precipitation 45.49  
Sea Level Pressure  
Sea Level Pressure 30.00 in    
Wind  
Wind Speed 2 mph (NW)    
Max Wind Speed 12 mph    
Max Gust Speed 17 mph    
Visibility 8 miles    
Events      
T = Trace of Precipitation, MM = Missing Value Source: NWS Daily Summary

Daily Weather History Graph

Daily Weather History Graph

Search for Another Location

Airport:

Trip Planner

Search our weather history database for the weather conditions in past years. The results will help you decide how hot, cold, wet, or windy it might be!

Date:

Astronomy

Nov. 01, 2012 Rise Set
Actual Time 6:59 AM CDT 5:53 PM CDT
Civil Twilight 6:34 AM CDT 6:18 PM CDT
Nautical Twilight 6:05 AM CDT 6:47 PM CDT
Astronomical Twilight 5:36 AM CDT 7:15 PM CDT
Moon 7:58 PM CDT (11/1) 9:23 AM CDT (11/1)
Length of Visible Light 11h 44m
Length of Day
10h 54m
Waning Gibbous, 93% of the Moon is Illuminated
Nov 1
Waning Gibbous
Nov 6
Last Quarter
Nov 13
New
Nov 20
First Quarter
Nov 28
Full

Hourly Weather History & Observations

Time (CDT) Temp. Dew Point Humidity Pressure Visibility Wind Dir Wind Speed Gust Speed Precip Events Conditions
12:53 AM 53.1 °F 48.9 °F 86% 29.96 in 10.0 mi Calm Calm - N/A   Mostly Cloudy
1:53 AM 52.0 °F 48.0 °F 86% 29.96 in 10.0 mi Calm Calm - N/A   Scattered Clouds
2:53 AM 51.1 °F 48.0 °F 89% 29.96 in 9.0 mi Calm Calm - N/A   Scattered Clouds
3:53 AM 48.0 °F 46.0 °F 93% 29.96 in 6.0 mi Calm Calm - N/A   Clear
4:53 AM 48.0 °F 45.0 °F 89% 29.97 in 6.0 mi Calm Calm - N/A   Clear
5:53 AM 46.9 °F 44.1 °F 90% 29.99 in 6.0 mi Calm Calm - N/A   Mostly Cloudy
6:53 AM 44.1 °F 42.1 °F 93% 30.00 in 2.5 mi Calm Calm - N/A   Clear
7:02 AM 44.6 °F 42.8 °F 93% 30.00 in 1.0 mi Calm Calm - N/A   Clear
7:13 AM 44.6 °F 42.8 °F 93% 30.00 in 4.0 mi Calm Calm - N/A   Clear
7:53 AM 48.0 °F 45.0 °F 89% 30.02 in 5.0 mi Calm Calm - N/A   Clear
8:53 AM 57.9 °F 42.1 °F 56% 30.03 in 10.0 mi North 4.6 mph - N/A   Clear
9:53 AM 63.0 °F 35.1 °F 35% 30.05 in 10.0 mi Calm Calm - N/A   Clear
10:53 AM 66.9 °F 30.0 °F 25% 30.06 in 10.0 mi North 8.1 mph - N/A   Clear
11:53 AM 69.1 °F 34.0 °F 27% 30.04 in 10.0 mi North 5.8 mph - N/A   Clear
12:53 PM 71.1 °F 36.0 °F 28% 30.00 in 10.0 mi WNW 11.5 mph - N/A   Clear
1:53 PM 72.0 °F 37.0 °F 28% 29.98 in 10.0 mi WNW 9.2 mph 16.1 mph N/A   Clear
2:53 PM 73.0 °F 39.0 °F 29% 29.95 in 10.0 mi NW 8.1 mph - N/A   Clear
3:53 PM 73.0 °F 39.0 °F 29% 29.95 in 10.0 mi WNW 9.2 mph 17.3 mph N/A   Clear
4:53 PM 71.1 °F 39.9 °F 32% 29.96 in 10.0 mi NW 6.9 mph - N/A   Clear
5:53 PM 64.9 °F 43.0 °F 45% 29.98 in 10.0 mi NW 3.5 mph - N/A   Clear
6:53 PM 57.0 °F 44.1 °F 62% 30.00 in 10.0 mi Calm Calm - N/A   Clear
7:53 PM 55.0 °F 45.0 °F 69% 30.01 in 10.0 mi Calm Calm - N/A   Clear
8:53 PM 50.0 °F 46.0 °F 86% 30.02 in 10.0 mi Calm Calm - N/A   Clear
9:53 PM 48.9 °F 45.0 °F 86% 30.04 in 10.0 mi Calm Calm - N/A   Clear
10:53 PM 48.0 °F 44.1 °F 86% 30.03 in 10.0 mi Calm Calm - N/A   Clear
11:53 PM 46.0 °F 44.1 °F 93% 30.03 in 10.0 mi Calm Calm - N/A   Clear